TimePDT,TemperatureF,Dew PointF,Humidity,Sea Level PressureIn,VisibilityMPH,Wind Direction,Wind SpeedMPH,Gust SpeedMPH,PrecipitationIn,Events,Conditions,WindDirDegrees,DateUTC
12:53 AM,82.0,61.0,49,29.85,10.0,East,3.5,-,N/A,,Clear,100,2013-08-28 07:53:00
1:53 AM,82.0,60.1,47,29.86,10.0,West,3.5,-,N/A,,Clear,260,2013-08-28 08:53:00
2:53 AM,80.1,60.1,50,29.86,10.0,WSW,3.5,-,N/A,,Clear,240,2013-08-28 09:53:00
3:53 AM,82.0,57.9,44,29.85,10.0,South,3.5,-,N/A,,Clear,170,2013-08-28 10:53:00
4:53 AM,78.1,61.0,56,29.86,10.0,WSW,4.6,-,N/A,,Clear,240,2013-08-28 11:53:00
5:53 AM,79.0,59.0,50,29.87,10.0,SSW,3.5,-,N/A,,Clear,210,2013-08-28 12:53:00
6:53 AM,79.0,59.0,50,29.89,10.0,WSW,3.5,-,N/A,,Clear,240,2013-08-28 13:53:00
7:53 AM,82.0,57.9,44,29.91,10.0,SW,4.6,-,N/A,,Clear,230,2013-08-28 14:53:00
8:53 AM,84.0,57.9,41,29.93,10.0,South,3.5,-,N/A,,Clear,190,2013-08-28 15:53:00
9:53 AM,86.0,57.0,37,29.94,10.0,Calm,Calm,-,N/A,,Clear,0,2013-08-28 16:53:00
10:53 AM,91.0,55.9,30,29.92,10.0,Calm,Calm,-,N/A,,Clear,0,2013-08-28 17:53:00
11:53 AM,91.9,55.9,30,29.91,10.0,SSE,9.2,-,N/A,,Clear,160,2013-08-28 18:53:00
12:53 PM,93.9,55.9,28,29.89,10.0,ESE,4.6,-,N/A,,Clear,120,2013-08-28 19:53:00
1:53 PM,95.0,57.0,28,29.86,10.0,South,9.2,-,N/A,,Clear,170,2013-08-28 20:53:00
2:53 PM,93.0,57.9,31,29.86,10.0,West,23.0,31.1,N/A,,Mostly Cloudy,260,2013-08-28 21:53:00
3:08 PM,93.2,57.2,30,29.88,10.0,West,19.6,-,N/A,,Scattered Clouds,280,2013-08-28 22:08:00
3:53 PM,95.0,55.9,27,29.84,10.0,West,9.2,-,N/A,,Clear,280,2013-08-28 22:53:00
4:53 PM,93.9,55.9,28,29.84,10.0,West,9.2,-,0.00,,Scattered Clouds,260,2013-08-28 23:53:00
5:53 PM,95.0,55.9,27,29.83,10.0,NW,6.9,-,N/A,,Clear,310,2013-08-29 00:53:00
6:53 PM,93.9,55.0,27,29.83,10.0,West,4.6,-,N/A,,Clear,270,2013-08-29 01:53:00
7:53 PM,93.0,55.0,28,29.85,10.0,Calm,Calm,-,N/A,,Clear,0,2013-08-29 02:53:00
8:53 PM,90.0,57.9,34,29.88,10.0,WSW,4.6,-,N/A,,Clear,250,2013-08-29 03:53:00
9:53 PM,89.1,60.1,38,29.88,10.0,West,5.8,-,N/A,,Mostly Cloudy,280,2013-08-29 04:53:00
10:53 PM,86.0,61.0,43,29.90,10.0,Calm,Calm,-,N/A,,Clear,0,2013-08-29 05:53:00
11:53 PM,84.0,62.1,47,29.91,10.0,Calm,Calm,-,N/A,,Clear,0,2013-08-29 06:53:00